Forside
METAR-TAF:

METAR-TAF

Lufthavne :

Fairfield Municipal Airport

Fairfield, Iowa, USA

Breddekreds: 41-03N, længdekreds: 091-59W, højde: 244 m

Aktuelle vejr

Denne rapport blev lavet for 12 minutter siden, kl. 18:15 UTC
Vind 4 kt fra nordnordøst
Temperatur 25°C
Fugtighed 47%
Tryk 1020 hPa
Sigt: 16.1 km
Nogle få skyer i en højde af 5000 ft
Nogle få skyer i en højde af 7000 ft

METAR: KFFL 031815Z AUTO 03004KT 10SM FEW050 FEW070 25/13 A3013 RMK A01

Tid: 13:27 (18:27 UTC)


TAF: fraværende

Vejrobservationer og prognoser fra mere end 4000 lufthavne (METAR og TAF).

De gule og røde prikker repræsenterer de meteorologiske stationer.

Flyt musen over at se navnet på stationen.

Så klik over at se vejr observationer og prognoser.

At skifte det kort: Klik på de grønne knapper med et sort kors for at zoome ind; på den grønne knap med en bindestreg for at zoome ud; eller på de grønne pile for tilstødende kort.


METAR-TAF: